| time (UTC) | temp F | wind direction | speed knots | gust knots | rain 1hr in | rain 24hr in | rain mn in | humidity % | barometer mb |
| 20260505001523 | 70 | 360 | 0.0 | 1.7 | 0.00 | 0.00 | 0.00 | 25 | 1014.7 |
| 20260504234523 | 72 | 360 | 0.0 | 1.7 | 0.00 | 0.00 | 0.00 | 24 | 1014.6 |
| 20260504233022 | 73 | 171 | 0.0 | 2.6 | 0.00 | 0.00 | 0.00 | 23 | 1014.4 |
| 20260504231521 | 74 | 167 | 0.9 | 4.3 | 0.00 | 0.00 | 0.00 | 22 | 1014.3 |
| 20260504224523 | 75 | 165 | 0.0 | 2.6 | 0.00 | 0.00 | 0.00 | 22 | 1014.4 |
| 20260504223021 | 75 | 164 | 0.0 | 5.2 | 0.00 | 0.00 | 0.00 | 20 | 1014.3 |
| 20260504221537 | 76 | 171 | 1.7 | 4.3 | 0.00 | 0.00 | 0.00 | 19 | 1014.3 |
| 20260504214517 | 77 | 172 | 0.9 | 6.1 | 0.00 | 0.00 | 0.00 | 19 | 1014.3 |
| 20260504213016 | 78 | 72 | 1.7 | 5.2 | 0.00 | 0.00 | 0.00 | 17 | 1014.4 |
| 20260504211514 | 79 | 96 | 1.7 | 7.8 | 0.00 | 0.00 | 0.00 | 16 | 1014.4 |
| 20260504210115 | 80 | 172 | 0.9 | 5.2 | 0.00 | 0.00 | 0.00 | 16 | 1014.4 |
| 20260504204517 | 79 | 184 | 1.7 | 7.0 | 0.00 | 0.00 | 0.00 | 16 | 1014.5 |
| 20260504203014 | 79 | 196 | 3.5 | 10.4 | 0.00 | 0.00 | 0.00 | 19 | 1014.7 |
| 20260504201512 | 78 | 183 | 1.7 | 8.7 | 0.00 | 0.00 | 0.00 | 17 | 1015.0 |
| 20260504200111 | 80 | 187 | 1.7 | 7.8 | 0.00 | 0.00 | 0.00 | 16 | 1015.1 |
| 20260504194509 | 80 | 165 | 2.6 | 7.0 | 0.00 | 0.00 | 0.00 | 15 | 1015.3 |
| 20260504193007 | 80 | 45 | 0.9 | 7.0 | 0.00 | 0.00 | 0.00 | 17 | 1015.6 |
| 20260504191504 | 80 | 144 | 4.3 | 7.8 | 0.00 | 0.00 | 0.00 | 17 | 1015.7 |
| 20260504184601 | 79 | 197 | 0.0 | 8.7 | 0.00 | 0.00 | 0.00 | 15 | 1016.0 |
| 20260504183058 | 78 | 155 | 0.0 | 7.8 | 0.00 | 0.00 | 0.00 | 19 | 1016.2 |
| 20260504181601 | 80 | 165 | 0.9 | 6.1 | 0.00 | 0.00 | 0.00 | 15 | 1016.2 |
| 20260504174555 | 78 | 161 | 0.0 | 5.2 | 0.00 | 0.00 | 0.00 | 17 | 1016.4 |
| 20260504173053 | 78 | 193 | 0.9 | 4.3 | 0.00 | 0.00 | 0.00 | 18 | 1016.5 |
| 20260504171557 | 78 | 186 | 0.0 | 2.6 | 0.00 | 0.00 | 0.00 | 19 | 1016.7 |
| 20260504170149 | 77 | 355 | 0.0 | 3.5 | 0.00 | 0.00 | 0.00 | 18 | 1017.1 |
| 20260504160140 | 72 | 144 | 1.7 | 7.8 | 0.00 | 0.00 | 0.00 | 23 | 1017.9 |
| 20260504140123 | 63 | 174 | 0.9 | 4.3 | 0.00 | 0.00 | 0.00 | 39 | 1018.2 |
| 20260504130109 | 55 | 250 | 0.0 | 2.6 | 0.00 | 0.00 | 0.00 | 49 | 1018.3 |
| 20260504081551 | 46 | 138 | 0.0 | 0.0 | 0.00 | 0.00 | 0.00 | 60 | 1017.3 |
| 20260504050025 | 51 | 360 | 0.0 | 0.0 | 0.00 | 0.00 | 0.00 | 54 | 1018.0 |
| 20260504044522 | 51 | 360 | 0.0 | 0.0 | 0.00 | 0.00 | 0.00 | 52 | 1017.6 |
| 20260504043020 | 52 | 360 | 0.0 | 0.0 | 0.00 | 0.00 | 0.00 | 51 | 1017.6 |
| 20260504041518 | 53 | 360 | 0.0 | 0.0 | 0.00 | 0.00 | 0.00 | 49 | 1017.7 |
| 20260504040035 | 53 | 360 | 0.0 | 0.0 | 0.00 | 0.00 | 0.00 | 49 | 1017.8 |
| 20260504034516 | 54 | 360 | 0.0 | 0.0 | 0.00 | 0.00 | 0.00 | 47 | 1018.0 |
| 20260504033021 | 55 | 360 | 0.0 | 0.0 | 0.00 | 0.00 | 0.00 | 44 | 1018.1 |
| 20260504031516 | 56 | 360 | 0.0 | 0.9 | 0.00 | 0.00 | 0.00 | 44 | 1018.0 |
| 20260504030015 | 56 | 360 | 0.0 | 0.0 | 0.00 | 0.00 | 0.00 | 43 | 1018.0 |
| 20260504024515 | 57 | 360 | 0.0 | 0.9 | 0.00 | 0.00 | 0.00 | 43 | 1017.9 |
| 20260504023015 | 57 | 360 | 0.0 | 2.6 | 0.00 | 0.00 | 0.00 | 41 | 1017.9 |
| 20260504021515 | 58 | 360 | 0.0 | 0.9 | 0.00 | 0.00 | 0.00 | 40 | 1017.8 |
| 20260504020015 | 58 | 360 | 0.0 | 4.3 | 0.00 | 0.00 | 0.00 | 40 | 1017.6 |
| 20260504014522 | 58 | 360 | 0.0 | 1.7 | 0.00 | 0.00 | 0.00 | 38 | 1017.4 |
| 20260504013014 | 59 | 360 | 0.0 | 1.7 | 0.00 | 0.00 | 0.00 | 37 | 1017.3 |
| 20260504011514 | 60 | 360 | 0.0 | 1.7 | 0.00 | 0.00 | 0.00 | 35 | 1017.2 |
| 20260504010013 | 61 | 150 | 0.0 | 1.7 | 0.00 | 0.00 | 0.00 | 34 | 1017.0 |
| 20260504004513 | 61 | 146 | 0.0 | 0.0 | 0.00 | 0.00 | 0.00 | 33 | 1016.9 |
| 20260504003013 | 63 | 145 | 0.0 | 0.0 | 0.00 | 0.00 | 0.00 | 31 | 1017.0 |